Alpena, MI (49707)

8:25 PM EST on February 10, 2016 (GMT -0500)
NOS_NWLON | | Change Station
CLOSE
Current Station
Personal Weather Station
Location: Alpena, MI
Elevation: 587 ft
Nearby Weather Stations

Elev 587 ft 45.06 °N, 83.43 °W | Updated 25 minutes ago

Overcast
Overcast
9 °F
Feels Like -5 °F
N
10
Wind Variable Wind from NNW
Gusts 14.0 mph

Today
High -- | Low -- °F
--% Chance of Precip.
Yesterday
High -- | Low -- °F
Precip. -- in
Pressure 29.97 in
Visibility 1.5 miles
Clouds Overcast 2100 ft
Windchill -5 °F
Dew Point Not available.
Humidity Not available.
Rainfall in
Snow Depth Not available.
7:42 AM 5:53 PM
Waxing Crescent, 8% visible
METAR KAPN 110054Z AUTO 31008G15KT 1 1/2SM -SN OVC021 M13/M16 A2992 RMK AO2 SLP149 P0001 T11281156
Pressure 29.97 in
Visibility 1.5 miles
Clouds Overcast 2100 ft
Windchill -5 °F
Dew Point Not available.
Humidity Not available.
Rainfall in
Snow Depth Not available.
7:42 AM 5:53 PM
Waxing Crescent, 8% visible
METAR KAPN 110054Z AUTO 31008G15KT 1 1/2SM -SN OVC021 M13/M16 A2992 RMK AO2 SLP149 P0001 T11281156

10-Day Weather Forecast

Almanac

Astronomy

Feb. 10, 2016 Rise Set
Actual Time
Civil Twilight
Nautical Twilight
Astronomical Twilight
Moon
Length of Visible Light
Length of Day
Tomorrow will be .
, % of the Moon is Illuminated

Today's Extremes

State Highs State Lows

Community

WunderPhotos

Upload Photos

1,891,963 photos uploaded!

WunderBlog® & News

Nearby

Air Quality

  Air Quality AQ Index Pollutant
Not available.

Snow Depth

Station Depth Elevation

Earthquake Activity

City Distance Mag. Time & Date
Minimum magnitude displayed is 2.5.

Coastal Water Temperatures

Place Temperature

Stations

Nearby Weather Stations

Station Location Temp. Windchill Dew Point Humidity Wind Precip. Elev Updated Type
                   

Watches & Warnings

There are currently no watches in effect.